When you browse on this site, cookies collect data to enhance your experience and personalize the content and advertising you see.
Visit our Privacy Policy to learn more. By continuing to use the site, you agree to this use of cookies and data.
  • In Lithuania
  • List of Countries
  • For 7 days
  • Water Temperature
  • Weather Map
  • Weather Widgets
  • user-avatar
    Login

    Hourly Weather Klagenfurt

    Today, 24 February, Monday

    Time Temperature Precipitation Wind Pressure Humidity
    00:00 +4°C° 0 mm 2 mps 689 mmHg 91%
    01:00 +4°C° 0 mm 2 mps 688 mmHg 91%
    02:00 +4°C° 0 mm 2 mps 688 mmHg 91%
    03:00 +5°C° 0 mm 1 mps 689 mmHg 91%
    04:00 +5°C° 0 mm 1 mps 689 mmHg 92%
    05:00 +5°C° 0 mm 1 mps 690 mmHg 91%
    06:00 +5°C° 0 mm 1 mps 691 mmHg 91%
    07:00 +5°C° 0 mm 1 mps 691 mmHg 85%
    08:00 +7°C° 0 mm 1 mps 692 mmHg 82%
    09:00 +8°C° 0 mm 1 mps 693 mmHg 79%
    10:00 +9°C° 0 mm 1 mps 694 mmHg 75%
    11:00 +9°C° 0 mm 1 mps 693 mmHg 78%
    12:00 +9°C° 0 mm 1 mps 693 mmHg 80%
    13:00 +8°C° 0 mm 1 mps 693 mmHg 78%
    14:00 +8°C° 0 mm 1 mps 692 mmHg 80%
    15:00 +8°C° 0 mm 1 mps 692 mmHg 81%
    16:00 +8°C° 0 mm 1 mps 691 mmHg 83%
    17:00 +7°C° 0 mm 1 mps 691 mmHg 86%
    18:00 +6°C° 0 mm 1 mps 691 mmHg 89%
    19:00 +6°C° 0 mm 1 mps 690 mmHg 92%
    20:00 +5°C° 0 mm 1 mps 690 mmHg 92%
    21:00 +4°C° 0 mm 0 mps 689 mmHg 93%
    22:00 +4°C° 0 mm 0 mps 689 mmHg 94%
    23:00 +3°C° 0 mm 0 mps 688 mmHg 94%

    Tomorrow, 25 February, Tuesday

    Time Temperature Precipitation Wind Pressure Humidity
    00:00 +4°C° 0 mm 1 mps 688 mmHg 95%
    01:00 +4°C° 0 mm 1 mps 687 mmHg 95%
    02:00 +4°C° 0 mm 1 mps 687 mmHg 95%
    03:00 +5°C° 0 mm 1 mps 686 mmHg 95%
    04:00 +5°C° 0 mm 1 mps 686 mmHg 95%
    05:00 +5°C° 0 mm 1 mps 685 mmHg 94%
    06:00 +5°C° 0 mm 1 mps 685 mmHg 94%
    07:00 +5°C° 0 mm 1 mps 685 mmHg 94%
    08:00 +6°C° 0 mm 1 mps 685 mmHg 90%
    09:00 +7°C° 0 mm 1 mps 684 mmHg 86%
    10:00 +8°C° 0 mm 1 mps 684 mmHg 81%
    11:00 +8°C° 0 mm 1 mps 684 mmHg 80%
    12:00 +9°C° 0 mm 1 mps 683 mmHg 78%
    13:00 +9°C° 0 mm 1 mps 683 mmHg 76%
    14:00 +9°C° 0.1 mm 1 mps 682 mmHg 78%
    15:00 +7°C° 0.1 mm 2 mps 682 mmHg 80%
    16:00 +7°C° 0.1 mm 2 mps 681 mmHg 82%
    17:00 +7°C° 0.2 mm 1 mps 681 mmHg 86%
    18:00 +7°C° 0.2 mm 1 mps 680 mmHg 89%
    19:00 +6°C° 0.2 mm 1 mps 680 mmHg 93%
    20:00 +6°C° 0.5 mm 1 mps 680 mmHg 93%
    21:00 +6°C° 0.5 mm 1 mps 679 mmHg 93%
    22:00 +6°C° 0.5 mm 1 mps 679 mmHg 94%
    23:00 +6°C° 0.8 mm 1 mps 678 mmHg 94%

    Day after tomorrow, 26 February, Wednesday

    Time Temperature Precipitation Wind Pressure Humidity
    00:00 +6°C° 0.8 mm 1 mps 678 mmHg 94%
    01:00 +6°C° 0.8 mm 1 mps 677 mmHg 94%
    02:00 +6°C° 0.7 mm 1 mps 677 mmHg 95%
    03:00 +6°C° 0.7 mm 1 mps 676 mmHg 96%
    04:00 +5°C° 0.7 mm 0 mps 676 mmHg 96%
    05:00 +5°C° 1.3 mm 1 mps 675 mmHg 96%
    06:00 +5°C° 1.3 mm 1 mps 675 mmHg 97%
    07:00 +5°C° 1.3 mm 1 mps 674 mmHg 97%
    08:00 +4°C° 1.6 mm 1 mps 674 mmHg 96%
    09:00 +4°C° 1.6 mm 1 mps 675 mmHg 96%
    10:00 +3°C° 1.6 mm 2 mps 675 mmHg 95%
    11:00 +2°C° 2.7 mm 2 mps 675 mmHg 96%
    12:00 +1°C° 2.7 mm 2 mps 675 mmHg 96%
    13:00 0°C° 2.7 mm 3 mps 674 mmHg 96%
    14:00 -1°C° 3.2 mm 2 mps 674 mmHg 96%
    15:00 -2°C° 3.2 mm 2 mps 674 mmHg 96%
    16:00 0°C° 3.2 mm 1 mps 674 mmHg 96%
    17:00 -1°C° 1.2 mm 1 mps 675 mmHg 94%
    18:00 -1°C° 1.2 mm 1 mps 676 mmHg 93%
    19:00 -1°C° 1.2 mm 1 mps 676 mmHg 91%
    20:00 -2°C° 0 mm 1 mps 677 mmHg 90%
    21:00 -2°C° 0 mm 1 mps 678 mmHg 89%
    22:00 -2°C° 0 mm 1 mps 678 mmHg 88%
    23:00 -3°C° 0 mm 1 mps 679 mmHg 87%

    27 February, Thursday

    Time Temperature Precipitation Wind Pressure Humidity
    00:00 -3°C° 0 mm 1 mps 679 mmHg 86%
    01:00 -3°C° 0 mm 1 mps 680 mmHg 85%
    02:00 -4°C° 0 mm 1 mps 680 mmHg 83%
    03:00 -4°C° 0 mm 1 mps 680 mmHg 82%
    04:00 -6°C° 0 mm 1 mps 680 mmHg 81%
    05:00 -6°C° 0 mm 1 mps 681 mmHg 80%
    06:00 -6°C° 0 mm 1 mps 681 mmHg 80%
    07:00 -6°C° 0 mm 1 mps 682 mmHg 79%
    08:00 -3°C° 0 mm 1 mps 682 mmHg 77%
    09:00 -1°C° 0 mm 1 mps 683 mmHg 74%
    10:00 +1°C° 0 mm 1 mps 684 mmHg 71%
    11:00 +2°C° 0 mm 1 mps 684 mmHg 70%
    12:00 +3°C° 0 mm 1 mps 684 mmHg 69%
    13:00 +3°C° 0 mm 2 mps 683 mmHg 68%
    14:00 +2°C° 0 mm 2 mps 682 mmHg 70%
    15:00 +2°C° 0 mm 2 mps 681 mmHg 73%
    16:00 +1°C° 0 mm 2 mps 680 mmHg 76%
    17:00 -1°C° 0 mm 2 mps 680 mmHg 79%
    18:00 -2°C° 0 mm 2 mps 679 mmHg 82%
    19:00 -4°C° 0 mm 2 mps 678 mmHg 85%
    20:00 -4°C° 0.1 mm 2 mps 678 mmHg 87%
    21:00 -4°C° 0.1 mm 2 mps 677 mmHg 90%
    22:00 -3°C° 0.1 mm 2 mps 677 mmHg 93%
    23:00 -4°C° 0 mm 2 mps 677 mmHg 92%

    28 February, Friday

    Time Temperature Precipitation Wind Pressure Humidity
    00:00 -4°C° 0 mm 2 mps 677 mmHg 91%
    01:00 -4°C° 0 mm 2 mps 677 mmHg 91%
    02:00 -4°C° 0 mm 2 mps 677 mmHg 89%
    03:00 -4°C° 0 mm 2 mps 678 mmHg 86%
    04:00 -5°C° 0 mm 2 mps 679 mmHg 84%
    05:00 -5°C° 0 mm 2 mps 680 mmHg 81%
    06:00 -5°C° 0 mm 2 mps 681 mmHg 77%
    07:00 -5°C° 0 mm 2 mps 682 mmHg 74%
    08:00 -4°C° 0 mm 3 mps 684 mmHg 68%
    09:00 -2°C° 0 mm 4 mps 685 mmHg 63%
    10:00 -1°C° 0 mm 4 mps 686 mmHg 57%
    11:00 0°C° 0 mm 4 mps 687 mmHg 56%
    12:00 +2°C° 0 mm 3 mps 688 mmHg 55%
    13:00 +2°C° 0 mm 3 mps 688 mmHg 54%
    14:00 +3°C° 0 mm 2 mps 688 mmHg 56%
    15:00 +4°C° 0 mm 1 mps 689 mmHg 59%
    16:00 +3°C° 0 mm 0 mps 689 mmHg 61%
    17:00 +2°C° 0 mm 1 mps 689 mmHg 65%
    18:00 0°C° 0 mm 1 mps 688 mmHg 69%
    19:00 -1°C° 0 mm 1 mps 688 mmHg 72%
    20:00 -2°C° 0 mm 1 mps 688 mmHg 74%
    21:00 -2°C° 0 mm 1 mps 688 mmHg 75%
    22:00 -2°C° 0 mm 1 mps 688 mmHg 76%
    23:00 -2°C° 0 mm 1 mps 688 mmHg 77%

    29 February, Saturday

    Time Temperature Precipitation Wind Pressure Humidity
    00:00 -2°C° 0 mm 1 mps 688 mmHg 79%
    01:00 -3°C° 0 mm 1 mps 687 mmHg 80%
    02:00 -2°C° 0 mm 1 mps 687 mmHg 80%
    03:00 -2°C° 0 mm 1 mps 686 mmHg 80%
    04:00 -2°C° 0 mm 1 mps 686 mmHg 80%
    05:00 -2°C° 0 mm 1 mps 686 mmHg 80%
    06:00 -2°C° 0 mm 1 mps 685 mmHg 80%
    07:00 -2°C° 0 mm 1 mps 685 mmHg 80%
    08:00 0°C° 0 mm 1 mps 685 mmHg 78%
    09:00 -1°C° 0 mm 2 mps 685 mmHg 77%
    10:00 +2°C° 0 mm 2 mps 685 mmHg 75%
    11:00 +3°C° 0 mm 2 mps 685 mmHg 75%
    12:00 +4°C° 0 mm 2 mps 684 mmHg 76%
    13:00 +4°C° 0 mm 2 mps 684 mmHg 77%
    14:00 +4°C° 0 mm 2 mps 683 mmHg 78%
    15:00 +4°C° 0 mm 2 mps 683 mmHg 80%
    16:00 +4°C° 0 mm 2 mps 682 mmHg 81%
    17:00 +3°C° 0 mm 2 mps 682 mmHg 85%
    18:00 +2°C° 0 mm 2 mps 682 mmHg 89%
    19:00 +1°C° 0 mm 2 mps 681 mmHg 93%
    20:00 +1°C° 0.2 mm 2 mps 681 mmHg 94%
    21:00 +1°C° 0.2 mm 2 mps 681 mmHg 95%
    22:00 +2°C° 0.2 mm 1 mps 681 mmHg 96%
    23:00 +3°C° 0.6 mm 1 mps 681 mmHg 96%
    Show more